Regional Weather Roundup
Issued by NWS Sioux Falls, SD

Home | Current Version | Previous Version | Graphics & Text | Print | Product List | Glossary On
Versions: 1 2 3 4 5 6 7 8 9 10 11 12 13 14 15 16 17 18 19 20 21 22 23 24 25 26 27 28 29 30 31 32 33 34 35 36 37 38 39 40 41 42 43 44 45 46 47 48 49 50
000
ASUS43 KFSD 291902
RWRFSD

WEATHER ROUNDUP FOR SE SOUTH DAKOTA/SW MINNESOTA/NW IOWA
NATIONAL WEATHER SERVICE SIOUX FALLS SD
200 PM CDT FRI JUL 29 2016

NOTE: "FAIR" INDICATES FEW OR NO CLOUDS BELOW 12,000 FEET WITH NO
SIGNIFICANT WEATHER AND OR OBSTRUCTIONS TO VISIBILITY.


SDZ038>040-050-052>070-292000-
SOUTHEAST SOUTH DAKOTA

CITY           SKY/WX    TMP DP  RH WIND       PRES   REMARKS
BROOKINGS      CLOUDY    75  53  46 NE7       30.10F
CHAMBERLAIN    MOSUNNY   83  58  42 SE6       30.07F
HURON          MOSUNNY   80  55  42 MISG      30.07F
MADISON        FAIR      73  57  56 E3        30.10F
MITCHELL       SUNNY     80  55  42 E8        30.08F
SIOUX FALLS    MOSUNNY   77  56  48 NE6       30.08F
WINNER         FAIR      79  57  46 E9        30.09F
YANKTON        MOSUNNY   75  54  46 CALM      30.06F
$$

MNZ071-072-080-081-089-090-097-098-292000-
SOUTHWEST MINNESOTA

CITY           SKY/WX    TMP DP  RH WIND       PRES   REMARKS
FAIRMONT       PTSUNNY   75  63  64 NE8       30.05F
JACKSON        PTSUNNY   73  55  53 N8        30.08F
LUVERNE        SUNNY     75  55  50 E7        30.09F
MARSHALL       MOSUNNY   75  57  53 E6        30.08F
MONTEVIDEO     SUNNY     79  57  47 E5        30.10F
REDWOOD FALLS  SUNNY     78  53  41 NE7       30.07F
TRACY          SUNNY     76  58  54 NE7       30.09F
WINDOM         MOSUNNY   73  55  53 N10G16    30.08F
WORTHINGTON    PTSUNNY   75  59  57 N10       30.09F
$$

IAZ001>003-012>014-020>022-031-032-NEZ013-014-SDZ071-292000-
NORTHWEST IOWA

CITY           SKY/WX    TMP DP  RH WIND       PRES   REMARKS
CHEROKEE       PTSUNNY   75  63  67 N10G16    30.05F
DENISON        CLOUDY    73  63  68 NE9       30.03S
ESTHERVILLE    CLOUDY    72  63  73 N12       30.06F
LE MARS        MOSUNNY   77  59  53 VRB7      30.07S
SHELDON        PTSUNNY   75  63  64 E6G13     30.06F
SIOUX CITY     PTSUNNY   80  58  46 N7        30.06S
SPENCER        CLOUDY    76  60  57 N10       30.07F
STORM LAKE     PTSUNNY   72  63  73 NE9       30.07S
$$

ABBREVIATIONS USED IN REMARKS
   TC - TEMPERATURE IN CELSIUS
  WCI - WIND CHILL INDEX
   HX - HEAT INDEX
  VSB - VISIBILITY




USA.gov is the U.S. government's official web portal to all federal, state and local government web resources and services.